Time,TemperatureF,DewpointF,PressureIn,WindDirection,WindDirectionDegrees,WindSpeedMPH,WindSpeedGustMPH,Humidity,HourlyPrecipIn,Conditions,Clouds,dailyrainin,SoftwareType,DateUTC
2013-01-07 00:02:00,55.0,50.0,30.07,WNW,303,0.0,4.0,83,0.00,,,0.00,,2013-01-06 23:02:00,
2013-01-07 00:12:00,55.0,50.0,30.07,WNW,303,0.0,4.0,83,0.00,,,0.00,,2013-01-06 23:12:00,
2013-01-07 00:22:00,55.0,50.0,30.06,WNW,288,3.0,7.0,83,0.00,,,0.00,,2013-01-06 23:22:00,
2013-01-07 00:32:00,55.0,50.0,30.05,WNW,288,5.0,5.0,83,0.00,,,0.00,,2013-01-06 23:32:00,
2013-01-07 00:42:00,55.0,50.0,30.05,WNW,288,5.0,5.0,83,0.00,,,0.00,,2013-01-06 23:42:00,
2013-01-07 00:52:00,55.0,50.0,30.05,NW,316,3.0,6.0,83,0.00,,,0.00,,2013-01-06 23:52:00,
2013-01-07 01:02:00,55.0,50.0,30.05,WNW,303,3.0,10.0,84,0.00,,,0.00,,2013-01-07 00:02:00,
2013-01-07 01:11:00,55.0,50.0,30.05,WNW,303,3.0,10.0,84,0.00,,,0.00,,2013-01-07 00:11:00,
2013-01-07 01:22:00,55.0,50.0,30.05,NNW,338,3.0,10.0,83,0.00,,,0.00,,2013-01-07 00:22:00,
2013-01-07 01:32:00,55.0,50.0,30.05,NNW,341,3.0,8.0,84,0.00,,,0.00,,2013-01-07 00:32:00,
2013-01-07 01:42:00,55.0,50.0,30.05,NNW,341,3.0,8.0,84,0.00,,,0.00,,2013-01-07 00:42:00,
2013-01-07 01:52:00,55.0,50.0,30.06,NW,325,4.0,10.0,84,0.00,,,0.00,,2013-01-07 00:52:00,
2013-01-07 02:02:00,55.0,50.0,30.05,NNE,20,4.0,10.0,84,0.00,,,0.00,,2013-01-07 01:02:00,
2013-01-07 02:11:00,55.0,50.0,30.05,NNE,20,4.0,10.0,84,0.00,,,0.00,,2013-01-07 01:11:00,
2013-01-07 02:22:00,55.0,50.0,30.05,NW,315,4.0,4.0,83,0.00,,,0.00,,2013-01-07 01:22:00,
2013-01-07 02:32:00,55.0,51.0,30.04,WNW,301,2.0,5.0,85,0.00,,,0.00,,2013-01-07 01:32:00,
2013-01-07 02:42:00,55.0,51.0,30.04,WNW,301,2.0,5.0,85,0.00,,,0.00,,2013-01-07 01:42:00,
2013-01-07 02:52:00,55.0,51.0,30.04,West,279,5.0,5.0,85,0.00,,,0.00,,2013-01-07 01:52:00,
2013-01-07 03:02:00,55.0,50.0,30.05,WNW,286,8.0,8.0,84,0.00,,,0.00,,2013-01-07 02:02:00,
2013-01-07 03:11:00,55.0,50.0,30.05,WNW,286,8.0,8.0,84,0.00,,,0.00,,2013-01-07 02:11:00,
2013-01-07 03:22:00,55.0,50.0,30.05,NNE,12,6.0,6.0,84,0.00,,,0.00,,2013-01-07 02:22:00,
2013-01-07 03:32:00,54.0,50.0,30.05,NNE,13,6.0,7.0,85,0.00,,,0.00,,2013-01-07 02:32:00,
2013-01-07 03:42:00,54.0,50.0,30.05,NNE,13,6.0,7.0,85,0.00,,,0.00,,2013-01-07 02:42:00,
2013-01-07 03:52:00,54.0,49.0,30.05,North,360,3.0,7.0,84,0.00,,,0.00,,2013-01-07 02:52:00,
2013-01-07 04:02:00,53.0,48.0,30.05,NNE,18,5.0,7.0,84,0.00,,,0.00,,2013-01-07 03:02:00,
2013-01-07 04:11:00,53.0,48.0,30.05,NNE,18,5.0,7.0,84,0.00,,,0.00,,2013-01-07 03:11:00,
2013-01-07 04:22:00,53.0,48.0,30.05,NNE,20,3.0,4.0,84,0.00,,,0.00,,2013-01-07 03:22:00,
2013-01-07 04:32:00,53.0,48.0,30.04,NNE,17,2.0,3.0,84,0.00,,,0.00,,2013-01-07 03:32:00,
2013-01-07 04:42:00,53.0,48.0,30.04,NNE,17,2.0,3.0,84,0.00,,,0.00,,2013-01-07 03:42:00,
2013-01-07 04:52:00,53.0,48.0,30.04,North,360,3.0,4.0,83,0.00,,,0.00,,2013-01-07 03:52:00,
2013-01-07 05:02:00,53.0,48.0,30.03,NNW,344,1.0,3.0,83,0.00,,,0.00,,2013-01-07 04:02:00,
2013-01-07 05:12:00,53.0,48.0,30.03,NNW,344,1.0,3.0,83,0.00,,,0.00,,2013-01-07 04:12:00,
2013-01-07 05:22:00,53.0,48.0,30.03,WNW,297,1.0,3.0,83,0.00,,,0.00,,2013-01-07 04:22:00,
2013-01-07 05:32:00,53.0,48.0,30.03,WNW,297,1.0,2.0,83,0.00,,,0.00,,2013-01-07 04:32:00,
2013-01-07 05:42:00,53.0,48.0,30.03,WNW,297,1.0,2.0,83,0.00,,,0.00,,2013-01-07 04:42:00,
2013-01-07 05:52:00,52.0,47.0,30.03,NW,308,3.0,3.0,83,0.00,,,0.00,,2013-01-07 04:52:00,
2013-01-07 06:02:00,52.0,47.0,30.04,NW,309,2.0,3.0,84,0.00,,,0.00,,2013-01-07 05:02:00,
2013-01-07 06:12:00,52.0,47.0,30.04,NW,309,2.0,3.0,84,0.00,,,0.00,,2013-01-07 05:12:00,
2013-01-07 06:22:00,51.0,47.0,30.04,NE,42,3.0,7.0,85,0.00,,,0.00,,2013-01-07 05:22:00,
2013-01-07 06:32:00,50.0,46.0,30.04,NE,44,3.0,4.0,87,0.00,,,0.00,,2013-01-07 05:32:00,
2013-01-07 06:42:00,50.0,46.0,30.04,NE,44,3.0,4.0,87,0.00,,,0.00,,2013-01-07 05:42:00,
2013-01-07 06:52:00,50.0,46.0,30.05,NE,43,4.0,5.0,87,0.00,,,0.00,,2013-01-07 05:52:00,
2013-01-07 07:02:00,49.0,46.0,30.06,NE,46,4.0,6.0,88,0.00,,,0.00,,2013-01-07 06:02:00,
2013-01-07 07:11:00,49.0,46.0,30.06,NE,46,4.0,6.0,88,0.00,,,0.00,,2013-01-07 06:11:00,
2013-01-07 07:22:00,50.0,47.0,30.06,NE,42,3.0,6.0,89,0.00,,,0.00,,2013-01-07 06:22:00,
2013-01-07 07:32:00,50.0,47.0,30.06,NE,46,1.0,3.0,88,0.00,,,0.00,,2013-01-07 06:32:00,
2013-01-07 07:42:00,50.0,47.0,30.06,NE,46,1.0,3.0,88,0.00,,,0.00,,2013-01-07 06:42:00,
2013-01-07 07:52:00,50.0,47.0,30.06,NE,46,3.0,3.0,88,0.00,,,0.00,,2013-01-07 06:52:00,
2013-01-07 08:02:00,50.0,47.0,30.07,ENE,74,3.0,4.0,88,0.00,,,0.00,,2013-01-07 07:02:00,
2013-01-07 08:11:00,50.0,47.0,30.07,ENE,74,3.0,4.0,88,0.00,,,0.00,,2013-01-07 07:11:00,
2013-01-07 08:22:00,50.0,46.0,30.07,ENE,67,3.0,6.0,85,0.00,,,0.00,,2013-01-07 07:22:00,
2013-01-07 08:32:00,52.0,47.0,30.08,ENE,67,3.0,4.0,84,0.00,,,0.00,,2013-01-07 07:32:00,
2013-01-07 08:42:00,52.0,47.0,30.08,ENE,67,3.0,4.0,84,0.00,,,0.00,,2013-01-07 07:42:00,
2013-01-07 08:52:00,53.0,48.0,30.08,ENE,58,2.0,6.0,83,0.00,,,0.00,,2013-01-07 07:52:00,
2013-01-07 09:02:00,53.0,48.0,30.08,ENE,58,2.0,3.0,82,0.00,,,0.00,,2013-01-07 08:02:00,
2013-01-07 09:11:00,53.0,48.0,30.08,ENE,58,2.0,3.0,82,0.00,,,0.00,,2013-01-07 08:11:00,
2013-01-07 09:22:00,55.0,47.0,30.08,ENE,76,3.0,6.0,75,0.00,,,0.00,,2013-01-07 08:22:00,
2013-01-07 09:32:00,57.0,47.0,30.08,ESE,118,3.0,6.0,68,0.00,,,0.00,,2013-01-07 08:32:00,
2013-01-07 09:42:00,57.0,47.0,30.08,ESE,118,3.0,6.0,68,0.00,,,0.00,,2013-01-07 08:42:00,
2013-01-07 09:52:00,56.0,46.0,30.09,ESE,113,3.0,3.0,69,0.00,,,0.00,,2013-01-07 08:52:00,
2013-01-07 10:02:00,57.0,46.0,30.09,East,98,2.0,6.0,66,0.00,,,0.00,,2013-01-07 09:02:00,
2013-01-07 10:11:00,57.0,46.0,30.09,East,98,2.0,6.0,66,0.00,,,0.00,,2013-01-07 09:11:00,
2013-01-07 10:22:00,57.0,44.0,30.09,ENE,72,3.0,10.0,61,0.00,,,0.00,,2013-01-07 09:22:00,
2013-01-07 10:32:00,58.0,44.0,30.10,ESE,120,3.0,7.0,60,0.00,,,0.00,,2013-01-07 09:32:00,
2013-01-07 10:42:00,58.0,44.0,30.10,ESE,120,3.0,7.0,60,0.00,,,0.00,,2013-01-07 09:42:00,
2013-01-07 10:52:00,58.0,44.0,30.10,SE,133,1.0,3.0,59,0.00,,,0.00,,2013-01-07 09:52:00,
2013-01-07 11:02:00,59.0,44.0,30.09,SE,127,3.0,3.0,58,0.00,,,0.00,,2013-01-07 10:02:00,
2013-01-07 11:11:00,60.0,45.0,30.10,SE,130,0.0,1.0,58,0.00,,,0.00,,2013-01-07 10:11:00,
2013-01-07 11:22:00,60.0,45.0,30.10,SE,130,0.0,1.0,58,0.00,,,0.00,,2013-01-07 10:22:00,
2013-01-07 11:32:00,60.0,44.0,30.10,SE,130,0.0,3.0,56,0.00,,,0.00,,2013-01-07 10:32:00,
2013-01-07 11:42:00,60.0,44.0,30.10,SE,130,0.0,3.0,56,0.00,,,0.00,,2013-01-07 10:42:00,
2013-01-07 11:52:00,59.0,46.0,30.09,SW,225,3.0,6.0,63,0.00,,,0.00,,2013-01-07 10:52:00,
2013-01-07 12:02:00,58.0,46.0,30.09,WSW,238,3.0,5.0,65,0.00,,,0.00,,2013-01-07 11:02:00,
2013-01-07 12:12:00,58.0,46.0,30.09,WSW,238,3.0,5.0,65,0.00,,,0.00,,2013-01-07 11:12:00,
2013-01-07 12:22:00,59.0,47.0,30.09,WSW,250,3.0,4.0,64,0.00,,,0.00,,2013-01-07 11:22:00,
2013-01-07 12:32:00,59.0,45.0,30.09,WSW,257,3.0,3.0,59,0.00,,,0.00,,2013-01-07 11:32:00,
2013-01-07 12:42:00,59.0,45.0,30.09,WSW,257,3.0,3.0,59,0.00,,,0.00,,2013-01-07 11:42:00,
2013-01-07 12:52:00,60.0,45.0,30.08,West,266,3.0,5.0,57,0.00,,,0.00,,2013-01-07 11:52:00,
2013-01-07 13:02:00,60.0,45.0,30.08,WNW,292,4.0,5.0,57,0.00,,,0.00,,2013-01-07 12:02:00,
2013-01-07 13:12:00,60.0,44.0,30.08,West,267,3.0,6.0,55,0.00,,,0.00,,2013-01-07 12:12:00,
2013-01-07 13:22:00,60.0,44.0,30.08,West,267,3.0,6.0,55,0.00,,,0.00,,2013-01-07 12:22:00,
2013-01-07 13:32:00,61.0,48.0,30.08,West,270,1.0,3.0,63,0.00,,,0.00,,2013-01-07 12:32:00,
2013-01-07 13:42:00,61.0,48.0,30.08,West,270,1.0,3.0,63,0.00,,,0.00,,2013-01-07 12:42:00,
2013-01-07 13:52:00,61.0,47.0,30.07,WSW,247,0.0,3.0,61,0.00,,,0.00,,2013-01-07 12:52:00,
2013-01-07 14:02:00,62.0,39.0,30.08,NNE,28,3.0,5.0,42,0.00,,,0.00,,2013-01-07 13:02:00,
2013-01-07 14:11:00,62.0,39.0,30.08,NNE,28,3.0,5.0,42,0.00,,,0.00,,2013-01-07 13:11:00,
2013-01-07 14:22:00,63.0,39.0,30.08,NE,39,3.0,5.0,41,0.00,,,0.00,,2013-01-07 13:22:00,
2013-01-07 14:32:00,63.0,39.0,30.08,North,9,3.0,4.0,41,0.00,,,0.00,,2013-01-07 13:32:00,
2013-01-07 14:42:00,63.0,39.0,30.08,North,9,3.0,4.0,41,0.00,,,0.00,,2013-01-07 13:42:00,
2013-01-07 14:52:00,62.0,38.0,30.08,NNE,32,3.0,8.0,41,0.00,,,0.00,,2013-01-07 13:52:00,
2013-01-07 15:02:00,62.0,39.0,30.09,North,5,5.0,9.0,42,0.00,,,0.00,,2013-01-07 14:02:00,
2013-01-07 15:12:00,62.0,39.0,30.09,NNE,33,4.0,6.0,43,0.00,,,0.00,,2013-01-07 14:12:00,
2013-01-07 15:22:00,62.0,39.0,30.09,NNE,33,4.0,6.0,43,0.00,,,0.00,,2013-01-07 14:22:00,
2013-01-07 15:32:00,62.0,39.0,30.09,NE,51,2.0,4.0,42,0.00,,,0.00,,2013-01-07 14:32:00,
2013-01-07 15:42:00,62.0,39.0,30.09,NE,51,2.0,4.0,42,0.00,,,0.00,,2013-01-07 14:42:00,
2013-01-07 15:53:00,62.0,40.0,30.09,NE,34,3.0,5.0,44,0.00,,,0.00,,2013-01-07 14:53:00,
2013-01-07 16:02:00,62.0,40.0,30.09,NE,41,2.0,5.0,44,0.00,,,0.00,,2013-01-07 15:02:00,
2013-01-07 16:12:00,62.0,40.0,30.09,NE,41,2.0,5.0,44,0.00,,,0.00,,2013-01-07 15:12:00,
2013-01-07 16:22:00,62.0,40.0,30.09,NE,36,2.0,5.0,45,0.00,,,0.00,,2013-01-07 15:22:00,
2013-01-07 16:33:00,61.0,41.0,30.10,NE,35,0.0,3.0,47,0.00,,,0.00,,2013-01-07 15:33:00,
2013-01-07 16:42:00,61.0,41.0,30.10,NE,35,0.0,3.0,47,0.00,,,0.00,,2013-01-07 15:42:00,
2013-01-07 16:52:00,60.0,44.0,30.10,NNE,14,3.0,6.0,56,0.00,,,0.00,,2013-01-07 15:52:00,
2013-01-07 17:02:00,57.0,46.0,30.11,NNE,33,5.0,7.0,67,0.00,,,0.00,,2013-01-07 16:02:00,
2013-01-07 17:12:00,57.0,46.0,30.11,NNE,33,5.0,7.0,67,0.00,,,0.00,,2013-01-07 16:12:00,
2013-01-07 17:22:00,57.0,46.0,30.11,NNE,24,3.0,7.0,67,0.00,,,0.00,,2013-01-07 16:22:00,
2013-01-07 17:33:00,55.0,45.0,30.12,NNE,30,3.0,7.0,68,0.00,,,0.00,,2013-01-07 16:33:00,
2013-01-07 17:42:00,55.0,45.0,30.12,NNE,30,3.0,7.0,68,0.00,,,0.00,,2013-01-07 16:42:00,
2013-01-07 17:52:00,55.0,45.0,30.12,NNE,30,5.0,6.0,70,0.00,,,0.00,,2013-01-07 16:52:00,
2013-01-07 18:02:00,55.0,47.0,30.13,NNE,26,7.0,8.0,73,0.00,,,0.00,,2013-01-07 17:02:00,
2013-01-07 18:11:00,55.0,47.0,30.13,NNE,26,7.0,8.0,73,0.00,,,0.00,,2013-01-07 17:11:00,
2013-01-07 18:22:00,54.0,46.0,30.14,NNE,32,7.0,7.0,74,0.00,,,0.00,,2013-01-07 17:22:00,
2013-01-07 18:32:00,54.0,46.0,30.14,NNE,29,6.0,7.0,74,0.00,,,0.00,,2013-01-07 17:32:00,
2013-01-07 18:42:00,54.0,46.0,30.14,NNE,29,6.0,7.0,74,0.00,,,0.00,,2013-01-07 17:42:00,
2013-01-07 18:52:00,54.0,46.0,30.14,NNE,31,3.0,6.0,74,0.00,,,0.00,,2013-01-07 17:52:00,
2013-01-07 19:02:00,53.0,45.0,30.15,NNE,28,4.0,5.0,75,0.00,,,0.00,,2013-01-07 18:02:00,
2013-01-07 19:12:00,53.0,45.0,30.15,NNE,28,4.0,5.0,75,0.00,,,0.00,,2013-01-07 18:12:00,
2013-01-07 19:22:00,54.0,46.0,30.15,NNE,32,4.0,6.0,75,0.00,,,0.00,,2013-01-07 18:22:00,
2013-01-07 19:32:00,54.0,46.0,30.16,NE,34,4.0,6.0,73,0.00,,,0.00,,2013-01-07 18:32:00,
2013-01-07 19:42:00,54.0,45.0,30.16,NE,40,5.0,5.0,71,0.00,,,0.00,,2013-01-07 18:42:00,
2013-01-07 19:52:00,54.0,45.0,30.16,NE,40,5.0,5.0,71,0.00,,,0.00,,2013-01-07 18:52:00,
2013-01-07 20:03:00,55.0,41.0,30.16,NE,53,3.0,6.0,59,0.00,,,0.00,,2013-01-07 19:03:00,
2013-01-07 20:12:00,55.0,41.0,30.16,NE,53,3.0,6.0,59,0.00,,,0.00,,2013-01-07 19:12:00,
2013-01-07 20:22:00,55.0,40.0,30.16,ENE,59,4.0,7.0,56,0.00,,,0.00,,2013-01-07 19:22:00,
2013-01-07 20:33:00,55.0,40.0,30.16,ENE,65,6.0,7.0,57,0.00,,,0.00,,2013-01-07 19:33:00,
2013-01-07 20:42:00,55.0,40.0,30.16,ENE,65,6.0,7.0,57,0.00,,,0.00,,2013-01-07 19:42:00,
2013-01-07 20:52:00,55.0,40.0,30.17,ENE,67,8.0,8.0,56,0.00,,,0.00,,2013-01-07 19:52:00,
2013-01-07 21:02:00,55.0,40.0,30.18,ENE,67,4.0,10.0,57,0.00,,,0.00,,2013-01-07 20:02:00,
2013-01-07 21:11:00,55.0,40.0,30.18,ENE,67,4.0,10.0,57,0.00,,,0.00,,2013-01-07 20:11:00,
2013-01-07 21:22:00,55.0,40.0,30.18,NE,55,4.0,5.0,57,0.00,,,0.00,,2013-01-07 20:22:00,
2013-01-07 21:33:00,55.0,41.0,30.18,NE,41,4.0,7.0,58,0.00,,,0.00,,2013-01-07 20:33:00,
2013-01-07 21:42:00,55.0,41.0,30.18,NE,41,4.0,7.0,58,0.00,,,0.00,,2013-01-07 20:42:00,
2013-01-07 21:52:00,55.0,41.0,30.18,NE,41,4.0,7.0,58,0.00,,,0.00,,2013-01-07 20:52:00,
2013-01-07 22:02:00,54.0,41.0,30.19,NE,48,4.0,6.0,62,0.00,,,0.00,,2013-01-07 21:02:00,
2013-01-07 22:11:00,54.0,41.0,30.19,NE,48,4.0,6.0,62,0.00,,,0.00,,2013-01-07 21:11:00,
2013-01-07 22:22:00,54.0,41.0,30.19,NE,51,0.0,3.0,61,0.00,,,0.00,,2013-01-07 21:22:00,
2013-01-07 22:32:00,53.0,41.0,30.20,NE,51,0.0,3.0,63,0.00,,,0.00,,2013-01-07 21:32:00,
2013-01-07 22:42:00,53.0,41.0,30.20,NE,51,0.0,3.0,63,0.00,,,0.00,,2013-01-07 21:42:00,
2013-01-07 22:52:00,53.0,41.0,30.21,NE,51,2.0,3.0,63,0.00,,,0.00,,2013-01-07 21:52:00,
2013-01-07 23:02:00,53.0,41.0,30.21,NE,51,1.0,1.0,64,0.00,,,0.00,,2013-01-07 22:02:00,
2013-01-07 23:11:00,53.0,41.0,30.21,NE,51,1.0,1.0,64,0.00,,,0.00,,2013-01-07 22:11:00,
2013-01-07 23:22:00,53.0,41.0,30.21,NE,51,0.0,3.0,64,0.00,,,0.00,,2013-01-07 22:22:00,
2013-01-07 23:33:00,53.0,40.0,30.22,ENE,71,3.0,9.0,61,0.00,,,0.00,,2013-01-07 22:33:00,
2013-01-07 23:42:00,53.0,40.0,30.22,ENE,71,3.0,9.0,61,0.00,,,0.00,,2013-01-07 22:42:00,
2013-01-07 23:52:00,53.0,40.0,30.22,ENE,67,4.0,8.0,61,0.00,,,0.00,,2013-01-07 22:52:00,